When you browse on this site, cookies collect data to enhance your experience and personalize the content and advertising you see.
Visit our Privacy Policy to learn more. By continuing to use the site, you agree to this use of cookies and data.
  • In Hungary
  • List of Countries
  • For 7 days
  • Water Temperature
  • Weather Map
  • News
  • Weather Widgets
  • user-avatar
    Login

    Hourly Weather Tavriis'ke

    Today, 19 November, Tuesday

    Time Temperature Precipitation Wind Pressure Humidity
    00:00 +5°C° 0 mm 2 mps 766 mmHg 88%
    01:00 +4°C° 0 mm 2 mps 767 mmHg 88%
    02:00 +4°C° 0 mm 2 mps 767 mmHg 88%
    03:00 +3°C° 0 mm 3 mps 767 mmHg 88%
    04:00 +3°C° 0 mm 3 mps 767 mmHg 88%
    05:00 +3°C° 0 mm 3 mps 767 mmHg 89%
    06:00 +3°C° 0 mm 3 mps 767 mmHg 87%
    07:00 +3°C° 0 mm 3 mps 767 mmHg 86%
    08:00 +3°C° 0 mm 3 mps 767 mmHg 85%
    09:00 +6°C° 0 mm 2 mps 767 mmHg 77%
    10:00 +8°C° 0 mm 2 mps 767 mmHg 70%
    11:00 +9°C° 0 mm 2 mps 767 mmHg 62%
    12:00 +10°C° 0 mm 2 mps 767 mmHg 59%
    13:00 +12°C° 0 mm 2 mps 767 mmHg 56%
    14:00 +12°C° 0 mm 1 mps 767 mmHg 52%
    15:00 +10°C° 0 mm 2 mps 767 mmHg 58%
    16:00 +9°C° 0 mm 2 mps 767 mmHg 63%
    17:00 +8°C° 0 mm 2 mps 767 mmHg 68%
    18:00 +7°C° 0 mm 2 mps 767 mmHg 71%
    19:00 +7°C° 0 mm 2 mps 767 mmHg 74%
    20:00 +5°C° 0 mm 3 mps 767 mmHg 77%
    21:00 +5°C° 0 mm 3 mps 767 mmHg 78%
    22:00 +4°C° 0 mm 3 mps 767 mmHg 80%
    23:00 +4°C° 0 mm 3 mps 766 mmHg 81%

    Tomorrow, 20 November, Wednesday

    Time Temperature Precipitation Wind Pressure Humidity
    00:00 +4°C° 0 mm 3 mps 767 mmHg 83%
    01:00 +3°C° 0 mm 3 mps 767 mmHg 84%
    02:00 +3°C° 0 mm 3 mps 767 mmHg 85%
    03:00 +3°C° 0 mm 3 mps 767 mmHg 86%
    04:00 +3°C° 0 mm 3 mps 766 mmHg 87%
    05:00 +2°C° 0 mm 3 mps 766 mmHg 88%
    06:00 +3°C° 0 mm 3 mps 767 mmHg 88%
    07:00 +3°C° 0 mm 3 mps 767 mmHg 88%
    08:00 +3°C° 0 mm 4 mps 767 mmHg 88%
    09:00 +4°C° 0 mm 4 mps 767 mmHg 84%
    10:00 +5°C° 0 mm 4 mps 767 mmHg 79%
    11:00 +7°C° 0 mm 5 mps 767 mmHg 75%
    12:00 +7°C° 0 mm 5 mps 767 mmHg 74%
    13:00 +7°C° 0 mm 5 mps 767 mmHg 73%
    14:00 +7°C° 0 mm 6 mps 767 mmHg 72%
    15:00 +7°C° 0 mm 6 mps 767 mmHg 73%
    16:00 +5°C° 0 mm 6 mps 767 mmHg 73%
    17:00 +5°C° 0 mm 6 mps 767 mmHg 74%
    18:00 +5°C° 0 mm 7 mps 767 mmHg 68%
    19:00 +5°C° 0 mm 8 mps 767 mmHg 63%
    20:00 +5°C° 0 mm 9 mps 768 mmHg 57%
    21:00 +3°C° 0 mm 9 mps 768 mmHg 63%
    22:00 +3°C° 0 mm 9 mps 768 mmHg 68%
    23:00 +3°C° 0 mm 9 mps 768 mmHg 74%

    Day after tomorrow, 21 November, Thursday

    Time Temperature Precipitation Wind Pressure Humidity
    00:00 +3°C° 0 mm 10 mps 768 mmHg 73%
    01:00 +3°C° 0 mm 10 mps 769 mmHg 73%
    02:00 +3°C° 0 mm 10 mps 769 mmHg 72%
    03:00 +2°C° 0 mm 10 mps 769 mmHg 72%
    04:00 +1°C° 0 mm 10 mps 769 mmHg 72%
    05:00 +1°C° 0 mm 10 mps 769 mmHg 72%
    06:00 -1°C° 0 mm 11 mps 770 mmHg 71%
    07:00 -2°C° 0 mm 11 mps 770 mmHg 70%
    08:00 -3°C° 0 mm 11 mps 771 mmHg 70%
    09:00 -2°C° 0 mm 11 mps 771 mmHg 66%
    10:00 -2°C° 0 mm 11 mps 771 mmHg 63%
    11:00 -2°C° 0 mm 11 mps 771 mmHg 60%
    12:00 -2°C° 0 mm 11 mps 771 mmHg 58%
    13:00 -2°C° 0 mm 11 mps 771 mmHg 56%
    14:00 -2°C° 0 mm 11 mps 771 mmHg 54%
    15:00 -3°C° 0 mm 11 mps 771 mmHg 54%
    16:00 -4°C° 0 mm 11 mps 771 mmHg 54%
    17:00 -4°C° 0 mm 11 mps 771 mmHg 54%
    18:00 -4°C° 0 mm 11 mps 772 mmHg 57%
    19:00 -6°C° 0 mm 11 mps 772 mmHg 59%
    20:00 -6°C° 0 mm 11 mps 772 mmHg 62%
    21:00 -6°C° 0 mm 11 mps 772 mmHg 64%
    22:00 -5°C° 0 mm 10 mps 772 mmHg 65%
    23:00 -5°C° 0 mm 10 mps 772 mmHg 67%

    22 November, Friday

    Time Temperature Precipitation Wind Pressure Humidity
    00:00 -7°C° 0 mm 10 mps 772 mmHg 68%
    01:00 -7°C° 0 mm 11 mps 772 mmHg 68%
    02:00 -7°C° 0 mm 11 mps 772 mmHg 68%
    03:00 -7°C° 0 mm 11 mps 772 mmHg 69%
    04:00 -7°C° 0 mm 11 mps 771 mmHg 70%
    05:00 -7°C° 0 mm 11 mps 771 mmHg 71%
    06:00 -6°C° 0 mm 11 mps 771 mmHg 71%
    07:00 -6°C° 0 mm 11 mps 771 mmHg 72%
    08:00 -5°C° 0 mm 12 mps 771 mmHg 72%
    09:00 -5°C° 0 mm 12 mps 771 mmHg 70%
    10:00 -3°C° 0 mm 12 mps 771 mmHg 68%
    11:00 -2°C° 0 mm 12 mps 771 mmHg 66%
    12:00 -2°C° 0 mm 12 mps 770 mmHg 65%
    13:00 -1°C° 0 mm 12 mps 770 mmHg 63%
    14:00 -1°C° 0 mm 11 mps 769 mmHg 62%
    15:00 -1°C° 0 mm 11 mps 769 mmHg 64%
    16:00 -2°C° 0 mm 10 mps 769 mmHg 65%
    17:00 -2°C° 0 mm 10 mps 769 mmHg 67%
    18:00 -2°C° 0 mm 10 mps 769 mmHg 68%
    19:00 -2°C° 0 mm 10 mps 769 mmHg 68%
    20:00 -2°C° 0 mm 10 mps 769 mmHg 69%
    21:00 -2°C° 0 mm 10 mps 769 mmHg 71%
    22:00 -3°C° 0 mm 10 mps 769 mmHg 72%
    23:00 -3°C° 0 mm 9 mps 769 mmHg 74%

    23 November, Saturday

    Time Temperature Precipitation Wind Pressure Humidity
    00:00 -3°C° 0 mm 9 mps 769 mmHg 76%
    01:00 -3°C° 0 mm 9 mps 769 mmHg 78%
    02:00 -3°C° 0 mm 9 mps 768 mmHg 80%
    03:00 -3°C° 0 mm 9 mps 768 mmHg 79%
    04:00 -3°C° 0 mm 9 mps 768 mmHg 78%
    05:00 -3°C° 0 mm 10 mps 768 mmHg 77%
    06:00 -3°C° 0 mm 9 mps 768 mmHg 77%
    07:00 -3°C° 0 mm 9 mps 768 mmHg 77%
    08:00 -3°C° 0 mm 9 mps 768 mmHg 76%
    09:00 -1°C° 0 mm 9 mps 768 mmHg 75%
    10:00 -1°C° 0 mm 9 mps 768 mmHg 73%
    11:00 -1°C° 0 mm 9 mps 768 mmHg 71%
    12:00 0°C° 0 mm 9 mps 768 mmHg 69%
    13:00 0°C° 0 mm 8 mps 767 mmHg 66%
    14:00 +1°C° 0 mm 8 mps 767 mmHg 64%
    15:00 0°C° 0 mm 8 mps 767 mmHg 64%
    16:00 0°C° 0 mm 7 mps 767 mmHg 64%
    17:00 0°C° 0 mm 7 mps 767 mmHg 64%
    18:00 0°C° 0 mm 7 mps 767 mmHg 65%
    19:00 0°C° 0 mm 8 mps 767 mmHg 65%
    20:00 0°C° 0 mm 8 mps 766 mmHg 66%
    21:00 0°C° 0 mm 8 mps 766 mmHg 69%
    22:00 0°C° 0 mm 8 mps 766 mmHg 71%
    23:00 -1°C° 0 mm 7 mps 766 mmHg 74%

    24 November, Sunday

    Time Temperature Precipitation Wind Pressure Humidity
    00:00 -1°C° 0 mm 7 mps 766 mmHg 76%
    01:00 -1°C° 0 mm 7 mps 766 mmHg 78%
    02:00 -1°C° 0 mm 7 mps 766 mmHg 80%
    03:00 -1°C° 0 mm 7 mps 766 mmHg 80%
    04:00 -1°C° 0 mm 7 mps 765 mmHg 80%
    05:00 -1°C° 0 mm 8 mps 765 mmHg 80%
    06:00 -1°C° 0 mm 8 mps 765 mmHg 80%
    07:00 0°C° 0 mm 8 mps 765 mmHg 79%
    08:00 0°C° 0 mm 8 mps 765 mmHg 79%
    09:00 0°C° 0 mm 8 mps 766 mmHg 77%
    10:00 +1°C° 0 mm 8 mps 766 mmHg 75%
    11:00 +1°C° 0 mm 8 mps 766 mmHg 73%
    12:00 +1°C° 0 mm 8 mps 765 mmHg 72%
    13:00 +2°C° 0 mm 8 mps 765 mmHg 70%
    14:00 +2°C° 0 mm 8 mps 765 mmHg 68%
    15:00 +3°C° 0 mm 7 mps 765 mmHg 68%
    16:00 +2°C° 0 mm 7 mps 765 mmHg 69%
    17:00 +2°C° 0 mm 6 mps 765 mmHg 69%
    18:00 +2°C° 0 mm 7 mps 765 mmHg 69%
    19:00 +3°C° 0 mm 7 mps 765 mmHg 69%
    20:00 +2°C° 0 mm 8 mps 765 mmHg 68%
    21:00 +2°C° 0 mm 7 mps 765 mmHg 71%
    22:00 +2°C° 0 mm 7 mps 765 mmHg 74%
    23:00 +2°C° 0 mm 7 mps 765 mmHg 77%
    Show more